Regional Weather Roundup
Issued by NWS Columbia, SC

Home | Current Version | Previous Version | Text Only | Print | Product List | Glossary On
Versions: 1 2 3 4 5 6 7 8 9 10 11 12 13 14 15 16 17 18 19 20 21 22 23 24 25 26 27 28 29 30 31 32 33 34 35 36 37 38 39 40 41 42 43 44 45 46 47 48 49 50
000
ASUS42 KCAE 270410
RWRCAE
REGIONAL WEATHER ROUNDUP
NATIONAL WEATHER SERVICE COLUMBIA SC
1200 AM EDT THU APR 27 2017

NOTE: "FAIR" INDICATES FEW OR NO CLOUDS BELOW 12,000 FEET WITH NO
SIGNIFICANT WEATHER AND/OR OBSTRUCTIONS TO VISIBILITY.

NOT ALL STATIONS ARE QUALITY CONTROLLED BY THE NATIONAL
WEATHER SERVICE. USE DATA WITH CAUTION...ESPECIALLY
DEWPOINT OBSERVATIONS.

SCZ001>056-GAZ040-063>065-077-270500-
...UPSTATE SOUTH CAROLINA...

CITY           SKY/WX    TMP DP  RH WIND       PRES   REMARKS
ANDERSON       CLOUDY    68  60  75 S5        29.84R
LIBERTY        MOCLDY    63  60  90 SW6       29.84R
SPARTANBURG    MOCLDY    66  57  72 CALM      29.83S
CLEMSON        MOCLDY    71  59  65 CALM      29.85S
GREENVILLE     MOCLDY    71  58  63 S7        29.85R
GREENWOOD      CLEAR     67  58  72 S8        29.85S
GREER          MOCLDY    65  58  78 S7        29.83R
ROCK HILL      CLEAR     61  58  90 S5        29.84S
CHESTER        CLEAR     64  57  77 S5        29.85R
LAURENS        CLEAR     66  59  77 S5        29.83F


...CENTRAL SOUTH CAROLINA...

CITY           SKY/WX    TMP DP  RH WIND       PRES   REMARKS
COLUMBIA APT   CLEAR     71  57  61 S12       29.85R
COLUMBIA OWENS CLEAR     70  58  65 SE5       29.87R
MCENTIRE ANGB  CLEAR     66  58  74 SE3       29.87R
ORANGEBURG     CLEAR     65  60  84 S5        29.88R
SUMTER SHAW    CLEAR     68  58  72 S7        29.85R
NEWBERRY       CLEAR     68  61  77 S7        29.87R
AIKEN          FAIR      66  59  77 SE8       29.89S
BARNWELL       FAIR      68  63  83 SE5       29.87S
MANNING        FAIR      68  59  73 S21G32    29.88S
CAMDEN         FAIR      70  59  68 S9        29.86S
LANCASTER      CLEAR     66  63  88 S6        29.85R
WINNSBORO      CLEAR     68  59  73 S7        29.86R


...EASTERN AND COASTAL SOUTH CAROLINA...

CITY           SKY/WX    TMP DP  RH WIND       PRES   REMARKS
N MYRTLE BCH   CLEAR     71  62  73 SW16      29.88S
CONWAY         FAIR      64  59  82 S3        29.89R
MARION         FAIR      66  55  68 S7        29.88R
HARTSVILLE     FAIR      66  57  72 S7        29.86R
FLORENCE       CLEAR     68  58  70 S10       29.87R
DARLINGTON     CLEAR     69  59  70 S12       29.87R
CHARLESTON APT CLEAR     66  60  81 S8        29.88S
MOUNT PLEASANT FAIR      72  64  78 S10       29.89R
WALTERBORO     CLEAR     63  61  94 CALM      29.89R
BEAUFORT       CLEAR     72  66  81 S8        29.87F


...EASTERN GEORGIA...

CITY           SKY/WX    TMP DP  RH WIND       PRES   REMARKS
AUGUSTA BUSH F PTCLDY    70  63  78 SE7       29.84R
AUGUSTA DANIEL PTCLDY    72  59  63 SE8       29.86R
THOMSON        CLOUDY    65  60  85 SW5       29.89S
WASHINGTON     FAIR      64  63  94 CALM      29.84S
CLAXTON        FAIR      68  68  99 CALM      29.88R
SYLVANIA       CLEAR    N/A N/A N/A S5        29.88R
STATESBORO     CLEAR     69  63  79 S6        29.87S
SAVANNAH       PTCLDY    70  62  76 S9        29.88S


...SOUTHERN NORTH CAROLINA...

CITY           SKY/WX    TMP DP  RH WIND       PRES   REMARKS
CHARLOTTE      CLEAR     67  58  72 S3        29.84R
MONROE         CLEAR     69  58  67 S7        29.83S
WADESBORO      CLEAR     71  60  67 S8G16     29.83R
ROCKINGHAM     CLEAR     69  62  78 S8        29.85R
RUTHERFORDTON  CLEAR     64  61  88 W9        29.84S
ASHEVILLE      CLEAR     62  54  74 S7        29.86F

$$



USA.gov is the U.S. government's official web portal to all federal, state and local government web resources and services.